Home > Weather > Bridgewater > Past weeks

Flag for USA Past Weather in Bridgewater, Massachusetts, USA — Yesterday and Last 2 Weeks

Now
84 °F

Sunny.


Feels Like: 83 °F
Forecast: 57 / 86 °F
Wind: 5 mph from North

Location: Taunton Municipal Airport

Current Time: Jun 30, 2016 at 1:39:58 PM

Latest Report: Jun 30, 2016 at 12:52 PM


Visibility: 10 mi

Pressure: 29.95 "Hg

Humidity: 35%

Dew Point: 53 °F

Location of BridgewaterLocation

Past Weather in Bridgewater — Graph

°F

Bridgewater Temperature Yesterday

Maximum temperature yesterday: 84 °F (at 2:52 PM)
Minimum temperature yesterday: 62 °F (at 11:52 PM)
Average temperature yesterday: 72 °F

High & Low Weather Summary for the Past Weeks

 TemperatureHumidityPressure
High86 °F (Jun 21, 3:52 PM)97% (Jun 17, 5:52 AM)30.34 "Hg (Jun 17, 5:52 AM)
Low46 °F (Jun 19, 4:52 AM)24% (Jun 18, 2:52 PM)29.70 "Hg (Jun 21, 4:52 PM)
Average68 °F66%30.01 "Hg
* Reported Jun 15 11:52 AM — Jun 30 11:52 AM, Bridgewater, Weather by CustomWeather, © 2016

Note: Actual official high and low records may vary slightly from our data, if they occured in-between our weather recording intervals... More about our weather records

Advertising

Bridgewater Weather History for the Previous 24 Hours

Scroll right to see more
 ConditionsComfort  
Time TempWeatherWind HumidityBarometerVisibility
11:52 AM
Thu, Jun 30
83 °FSunny.7 mph40%29.95 "Hg10 mi
10:52 AM80 °FSunny.No wind45%29.96 "Hg10 mi
9:52 AM79 °FSunny.7 mph50%29.96 "Hg10 mi
8:52 AM75 °FSunny.7 mph55%29.96 "Hg10 mi
7:52 AM71 °FSunny.5 mph68%29.95 "Hg10 mi
6:52 AM64 °FSunny.3 mph90%29.94 "Hg10 mi
5:52 AM58 °FFog.No wind97%29.92 "Hg3 mi
4:52 AM58 °FFog.No wind97%29.90 "Hg1 mi
4:00 AM59 °FFog.No wind96%29.89 "Hg0 mi
3:52 AM59 °FFog.No wind96%29.88 "Hg1 mi
3:03 AM60 °FFog.No wind93%29.88 "Hg1 mi
2:59 AM60 °FFog.No wind96%29.88 "Hg1 mi
2:03 AM61 °FFog.No wind93%29.88 "Hg1 mi
1:52 AM60 °FFog.No wind96%29.87 "Hg0 mi
12:57 AM61 °FFog.No wind97%29.88 "Hg1 mi
11:57 PM
Wed, Jun 29
63 °FFog.No wind93%29.88 "Hg1 mi
11:52 PM62 °FFog.No wind96%29.87 "Hg1 mi
10:52 PM65 °FFog.No wind94%29.87 "Hg4 mi
9:52 PM66 °FFog.No wind93%29.86 "Hg6 mi
8:52 PM70 °FSunny.No wind87%29.85 "Hg10 mi
7:52 PM74 °FSunny.5 mph79%29.84 "Hg10 mi
6:52 PM76 °FPassing clouds.6 mph77%29.83 "Hg10 mi
5:52 PM78 °FScattered clouds.7 mph69%29.83 "Hg10 mi
4:52 PM83 °FPassing clouds.9 mph59%29.82 "Hg10 mi
3:52 PM82 °FScattered clouds.7 mph60%29.81 "Hg10 mi
2:52 PM84 °FScattered clouds.8 mph57%29.82 "Hg10 mi
1:52 PM81 °FBroken clouds.3 mph62%29.83 "Hg10 mi
Weather by CustomWeather, © 2016

See weather overviewHow to use our weather pages